RH
68 54 46 46 42 36 36 34 32 35 34 35 35 35 34 33 34 30 27 26 26 27 24 24 24 27 29 28 27 27 27 25 24 23 21 19 18 16 15 15 15 15 15 14 16
42 39 34 34 33 31 29 29 29 26 25 26 26 26 27 28 30 27 27 24 22 21 20 20 20 22 26 26 25 24 23 21 19 17 15 13 12 12 11 12 12 13 12 11 12
44 40 38 35 33 32 31 31 28 25 23 24 25 25 25 26 26 25 25 26 25 24 22 18 16 15 16 18 19 20 18 16 14 13 12 12 15 15 15 16 16 15 14 11 10
38 34 31 29 27 26 27 26 26 26 24 24 24 24 24 23 24 29 29 27 22 21 20 19 17 15 13 13 12 12 12 13 13 13 15 16 17 16 15 16 16 14 14 15 17
28 25 22 20 21 22 22 21 20 19 19 19 19 20 20 19 21 20 23 26 24 20 18 13 12 14 14 12 12 13 14 16 20 20 19 16 16 16 18 15 15 16 17 17 16
21 17 17 20 21 19 18 17 16 14 14 14 15 17 17 18 18 18 19 19 21 20 15 13 12 12 13 13 15 18 21 21 20 18 17 17 19 18 22 26 33 41 45 45 44
18 21 24 20 18 17 18 17 16 15 13 12 12 12 12 15 16 16 17 16 18 18 14 14 16 15 14 15 19 21 21 20 16 18 19 24 34 33 40 43 41 44 43 43 41
24 24 22 20 18 19 23 23 21 20 18 14 13 12 12 12 12 12 13 14 13 13 13 16 18 17 15 17 21 21 19 17 18 18 25 27 42 44 42 37 40 41 43 39 26
24 23 21 20 21 24 26 36 38 31 24 18 15 13 12 12 13 12 12 13 13 12 14 18 20 20 19 21 23 22 19 18 20 25 32 44 50 49 43 41 42 48 39 26 16
22 22 29 28 24 29 46 42 19 10 9 9 9 12 16 15 12 12 13 14 16 14 15 16 22 23 21 22 24 22 20 19 22 38 45 49 51 48 42 42 47 41 35 19 11
31 52 48 28 37 47 37 14 10 9 8 8 9 9 12 16 14 12 12 14 17 16 16 17 23 22 22 26 24 21 18 21 37 49 58 58 49 45 47 48 36 28 21 13 8
66 73 47 38 54 43 26 12 11 9 10 8 8 9 10 13 16 13 13 15 16 18 18 20 24 26 28 26 23 19 19 39 61 59 56 49 42 44 51 38 32 21 16 10 10
69 86 48 53 56 44 28 14 13 12 11 10 10 10 10 12 15 16 18 18 18 18 20 22 25 31 28 23 18 19 37 55 58 55 55 41 39 65 54 37 30 22 14 11 10
70 81 53 55 55 48 41 16 16 14 13 11 12 12 11 11 15 18 20 17 18 19 22 27 30 28 24 18 18 32 55 60 49 50 48 41 36 67 48 40 34 19 16 11 9
70 79 58 52 56 51 48 18 17 17 16 16 14 13 14 13 15 17 23 19 18 22 26 28 30 27 19 16 28 53 63 59 52 49 50 49 51 66 47 41 29 20 17 10 8
82 84 61 54 50 54 52 36 18 18 18 18 16 14 14 16 15 22 26 19 24 27 31 29 25 21 20 37 54 58 63 54 46 51 51 61 58 63 35 31 21 21 15 10 8
68 77 72 55 51 53 48 55 26 17 17 18 19 16 16 19 21 19 19 23 27 32 30 24 20 26 56 58 46 54 51 47 50 49 52 66 70 60 37 34 24 24 14 10 8
68 64 68 50 54 50 46 49 53 20 18 18 20 23 25 25 25 27 30 30 31 29 23 22 45 68 72 53 60 61 51 52 51 47 53 71 77 77 36 36 28 20 12 8 7
68 64 60 47 55 50 48 46 54 54 22 17 17 20 22 24 22 24 23 23 22 19 19 40 70 63 55 55 56 57 51 49 51 49 45 61 70 60 38 30 22 16 10 8 7
75 72 64 59 39 56 53 50 46 47 60 40 20 18 19 20 20 20 20 26 34 51 56 52 55 61 58 56 62 57 59 58 54 46 41 56 95 46 37 31 23 16 9 8 6
76 72 69 82 50 34 58 57 54 50 43 48 53 47 51 55 56 63 63 62 63 57 55 53 65 66 63 67 66 57 64 59 55 62 48 39 88 44 30 26 21 14 8 8 8
88 89 73 69 83 80 32 42 62 61 53 46 40 42 44 42 45 50 52 52 46 43 58 71 69 65 67 76 68 64 56 54 55 64 51 52 58 46 35 25 17 10 8 8 7
86 94 95 79 79 82 86 56 32 35 38 44 42 40 38 36 35 38 42 52 53 60 63 66 66 60 69 76 51 52 55 41 47 53 59 57 60 35 28 29 18 9 7 7 7
54 80 94 98 94 85 83 82 80 72 64 34 34 33 34 35 34 35 42 55 69 79 75 67 68 57 64 64 44 50 62 54 50 57 44 73 40 34 23 21 12 10 8 7 7
70 57 79 93 100 97 95 95 84 77 86 79 72 52 46 46 54 56 66 67 70 72 67 69 67 62 62 54 47 50 51 59 52 45 54 59 39 22 18 16 10 9 8 7 7
52 69 61 84 94 88 95 100 99 94 78 80 75 73 66 71 77 80 80 77 84 88 74 63 59 56 63 46 33 46 58 49 46 47 64 42 28 19 18 14 9 8 9 8 6
56 64 54 60 78 82 100 100 100 96 97 88 86 78 74 72 72 77 82 84 87 83 72 67 65 63 53 33 40 53 51 47 46 61 53 31 17 16 13 10 8 8 8 7 6
Wind_Speed
21 25 26 28 29 30 31 31 32 32 32 32 33 33 34 35 37 37 37 37 37 38 39 38 38 38 39 40 41 42 42 43 45 46 49 52 54 57 56 56 59 58 57 59 62
29 31 33 34 33 34 36 36 36 37 37 37 37 38 39 39 40 40 41 40 38 39 39 39 39 41 44 43 43 44 46 48 48 50 53 57 56 58 58 61 60 63 65 65 65
36 37 38 40 41 42 43 44 43 43 43 43 42 41 42 43 43 43 43 42 43 43 43 42 43 44 44 46 48 49 51 52 52 55 55 55 56 56 57 60 62 63 65 68 69
41 43 44 45 46 47 49 50 51 51 50 49 48 47 47 47 46 47 47 46 46 45 45 45 48 49 48 48 49 51 53 53 53 51 51 52 57 60 61 62 63 62 63 65 66
43 45 47 48 49 50 53 54 55 55 55 55 54 54 53 52 51 50 48 50 50 47 47 48 50 50 50 49 50 51 49 47 48 50 53 55 62 63 64 62 60 62 64 67 70
48 49 49 49 50 52 55 57 59 58 58 57 57 57 55 55 52 50 49 50 48 48 50 50 50 51 50 48 47 47 47 49 52 55 57 59 66 62 57 56 59 62 68 72 78
50 48 49 50 54 56 61 59 58 59 60 60 58 59 58 56 55 53 51 49 48 50 49 50 50 49 47 45 45 47 48 52 54 57 61 58 57 55 56 59 64 70 78 85 92
48 50 52 55 57 61 60 53 52 53 53 56 58 60 59 57 57 56 54 53 50 50 50 49 47 45 45 44 45 47 48 53 58 58 51 50 53 58 63 67 74 80 88 100 103
50 54 58 60 62 60 51 51 54 55 53 52 51 50 53 55 56 54 53 53 52 51 48 45 45 46 44 44 46 49 51 55 59 54 51 54 57 65 70 75 83 91 99 103 105
56 59 63 63 52 44 47 54 57 53 49 49 50 49 46 47 50 51 51 49 46 45 44 42 42 44 43 46 47 50 54 56 56 52 52 59 64 72 76 83 89 89 92 98 102
58 55 55 47 39 43 49 50 46 46 42 40 43 46 44 43 43 44 45 46 43 43 43 42 41 42 43 47 50 54 55 56 53 53 56 65 68 78 81 83 84 84 89 95 102
52 52 47 37 39 44 48 42 40 38 37 36 35 38 42 42 38 37 39 42 42 44 43 42 42 43 45 48 53 56 56 54 53 58 63 68 73 85 89 85 85 86 90 89 94
50 45 41 35 40 43 46 37 34 32 30 30 31 33 36 38 39 33 34 37 41 41 41 43 42 46 49 51 54 58 52 52 56 61 69 71 74 90 90 87 86 87 87 85 82
46 45 37 34 38 41 43 35 32 30 30 26 24 26 30 33 36 33 31 33 36 36 38 42 43 46 50 54 53 55 52 57 60 65 70 80 73 89 89 93 88 89 86 83 71
42 43 38 32 34 39 41 35 30 28 25 25 23 21 23 28 31 31 31 32 33 34 38 36 45 52 55 54 52 51 56 60 65 70 75 84 87 93 89 93 90 92 87 83 74
38 41 37 35 33 36 36 36 30 27 23 23 21 21 21 23 27 27 31 32 34 35 38 41 46 53 54 52 51 54 58 64 69 73 79 86 93 94 88 85 91 89 86 83 76
42 39 38 35 33 34 35 33 31 28 24 20 20 21 18 21 24 28 31 31 32 37 41 45 51 50 49 53 56 59 62 68 71 76 83 92 98 99 93 89 90 87 83 78 74
48 41 38 35 35 33 33 32 30 30 29 25 24 23 24 24 27 28 31 35 38 40 44 46 46 46 51 55 58 64 71 77 80 81 84 94 101 105 95 96 90 84 79 72 63
48 42 36 37 36 34 31 32 29 28 29 30 28 27 28 30 31 32 34 38 43 44 42 41 47 49 55 59 61 69 75 81 85 87 89 95 99 100 96 95 90 85 79 71 59
44 44 39 36 37 37 36 32 32 31 30 29 29 31 32 35 37 38 39 40 40 40 41 43 48 56 60 63 67 74 80 87 91 94 93 98 102 97 96 92 88 83 78 71 60
47 44 43 39 35 39 40 38 36 35 35 34 32 30 30 33 36 39 37 37 40 44 49 48 52 58 62 66 72 78 86 92 93 98 102 94 102 97 94 91 85 79 76 69 61
49 46 44 43 39 37 40 44 44 43 40 40 40 38 39 36 41 46 46 48 49 48 49 54 55 58 69 76 78 84 91 97 99 100 106 101 97 99 94 90 84 76 70 65 58
57 52 50 46 44 43 41 43 45 45 45 44 44 44 44 44 44 51 50 53 54 54 53 58 62 66 73 80 81 87 96 101 104 105 104 105 102 99 91 85 83 77 72 61 55
63 58 55 51 50 50 48 47 45 45 47 46 47 45 46 50 49 50 53 55 60 61 62 62 72 75 79 87 88 92 101 105 107 108 97 107 94 95 90 83 77 75 71 60 52
67 65 62 57 56 56 54 55 52 50 52 51 50 48 49 49 52 54 55 57 64 67 70 74 77 79 84 90 91 95 102 106 107 105 106 100 97 92 90 80 74 71 67 58 49
73 72 68 65 63 62 60 60 60 59 56 58 57 57 56 56 59 63 64 67 71 77 79 81 82 85 88 93 95 98 107 107 108 106 109 99 91 91 87 81 76 69 62 55 47
81 82 73 67 72 65 64 66 69 68 64 65 64 64 64 65 65 69 72 75 79 81 85 90 93 94 94 98 100 102 109 107 105 108 102 93 88 85 81 76 72 64 58 51 46
Wind_Direction
267 269 271 274 275 273 271 272 268 264 265 264 264 266 267 265 266 267 268 270 272 274 274 276 275 273 272 272 271 271 271 271 270 271 273 274 274 275 273 271 270 269 267 267 262
278 279 279 280 278 277 277 277 275 275 273 271 270 269 269 268 267 269 270 272 274 275 277 279 279 279 275 274 273 271 272 273 272 273 276 278 277 277 277 275 273 272 270 267 264
278 280 279 279 280 279 279 278 277 277 276 273 272 274 273 272 271 270 268 268 272 273 275 277 278 279 278 277 276 277 277 277 277 278 279 280 280 279 278 278 275 272 271 269 264
278 280 282 282 282 280 279 278 276 274 273 271 271 271 271 272 272 270 266 268 272 273 276 278 280 279 280 281 280 281 281 280 281 281 282 283 283 283 280 276 274 272 269 266 267
284 286 286 286 284 283 282 279 277 275 273 272 270 269 269 270 269 269 268 268 272 274 279 282 282 281 281 283 284 284 284 281 281 283 284 284 282 283 280 279 278 276 275 273 271
287 288 288 288 288 287 286 283 280 277 274 271 270 269 268 268 269 270 270 270 272 274 278 284 283 280 282 282 284 285 284 284 286 288 287 285 286 284 284 283 283 283 281 279 276
288 287 288 289 291 292 293 288 281 277 274 272 268 266 265 266 268 270 270 270 271 274 279 283 280 279 279 282 283 283 286 288 289 290 288 288 285 287 287 288 289 288 285 281 277
289 290 291 292 293 297 296 291 288 284 280 274 269 265 265 264 264 265 267 269 272 274 278 280 279 277 278 280 282 284 287 293 293 293 288 285 288 294 295 293 291 291 288 283 279
292 295 296 296 297 297 293 292 289 287 284 278 273 268 265 263 261 262 263 266 270 273 275 278 280 278 276 278 281 287 290 294 296 293 293 295 298 297 297 298 298 293 290 289 287
296 300 299 299 298 295 295 294 293 291 285 280 271 265 262 262 260 259 261 263 267 269 271 278 280 278 277 281 286 290 291 294 294 292 297 301 304 301 300 302 297 294 292 290 290
306 307 304 302 301 302 305 302 299 293 291 284 273 262 256 258 261 261 260 261 265 268 272 278 282 279 279 287 291 292 295 296 294 300 304 304 303 304 305 302 298 294 292 291 293
311 308 308 301 306 310 313 312 308 303 297 288 278 261 252 253 258 260 261 262 263 268 274 280 282 280 285 288 292 294 297 295 301 305 304 304 308 307 308 304 303 300 299 299 298
308 313 307 300 309 315 319 316 316 312 303 296 283 268 253 252 256 261 267 269 269 269 273 279 278 284 288 292 294 295 296 300 304 305 306 308 314 312 312 311 309 306 304 303 302
306 311 303 299 309 316 322 319 321 318 311 301 290 276 260 253 256 261 268 275 272 268 272 278 281 284 287 292 294 297 302 304 305 307 310 312 318 318 318 312 314 308 310 307 305
302 308 301 294 306 315 323 318 321 320 316 308 298 284 267 257 257 261 266 275 274 274 276 278 287 290 293 294 298 301 304 305 307 311 313 316 321 320 318 316 314 312 314 311 307
296 303 298 290 300 311 320 321 313 314 317 312 305 294 279 266 262 261 270 275 277 277 281 286 286 289 293 297 299 304 306 307 310 313 315 318 322 324 316 317 313 316 314 313 309
295 298 295 287 291 304 314 322 315 307 305 307 306 301 290 278 274 277 278 277 276 281 286 288 292 296 300 301 306 307 306 306 310 313 319 321 325 325 317 320 317 318 316 313 311
293 291 294 282 284 294 306 314 319 309 298 297 294 292 291 285 282 281 281 281 281 283 288 292 293 295 299 303 305 308 310 310 312 317 322 322 326 323 321 320 320 318 317 312 311
291 290 295 284 282 286 295 304 310 312 303 294 292 291 290 288 286 284 282 281 284 285 285 287 293 298 300 304 307 309 309 311 315 320 324 325 329 322 322 320 321 320 319 315 316
286 286 291 294 280 280 285 291 297 301 304 300 294 290 289 288 288 287 287 288 289 290 294 297 299 301 304 307 309 310 311 313 317 322 325 327 329 325 320 323 322 321 320 317 318
280 282 284 289 292 280 280 282 286 292 296 295 297 296 295 296 296 295 295 292 292 295 297 301 301 303 306 307 308 312 313 314 318 321 324 329 326 325 322 324 323 322 320 318 318
276 279 280 283 286 291 284 281 282 285 285 289 290 291 293 294 297 295 295 294 294 297 298 299 300 303 307 308 311 313 313 314 318 321 324 327 328 324 325 324 322 321 319 318 318
274 274 276 277 281 284 286 284 283 284 285 285 287 290 292 295 295 294 294 295 297 298 297 299 299 303 306 307 311 313 314 318 319 322 326 325 328 322 324 325 322 322 319 319 318
270 272 272 275 277 279 283 283 286 288 288 285 285 287 289 291 293 292 295 296 296 297 298 299 301 306 308 309 314 315 314 317 321 323 327 322 326 321 323 324 323 321 318 319 318
268 269 270 271 274 275 278 281 284 286 288 289 291 290 290 291 293 293 294 295 295 296 300 302 303 306 307 308 313 313 313 317 320 322 323 325 324 323 322 323 323 320 318 318 316
264 266 269 270 271 273 276 277 281 282 284 287 290 291 292 295 296 295 296 296 296 298 300 301 303 305 307 310 311 313 314 318 319 322 321 323 324 322 324 323 324 321 317 317 313
264 265 263 265 267 270 273 276 277 279 282 283 286 289 291 292 292 293 294 296 297 298 299 301 303 304 307 310 312 313 312 315 319 320 320 320 320 322 324 323 322 320 316 317 313